Погода в Мехамне

Норвегия     71°02′18″N   27°51′08″E
темп.,
°C
ветер,
м/с
пор.,
м/с
влажн.,
%
обл.,
%
осадки,
мм/ч
давл.,
гПа
погр.,
м
25 июля, вс
вс2523:00+6сз111487100 0.3 10081026
02:00+6сз101385100 0.4 1009943
05:00+6сз91185100 0.1 1010938
08:00+6сз91085100 0.3 1011802
11:00+7сз8981100 0.1 1012910
14:00+7сз8980100 0.2 1013885
17:00+7сз8981100 0.1 1014909
20:00+6сз6884100 0.3 1015787
26 июля, пн
пн2623:00+6сз6886100 0.2 1016713
02:00+6сз6884100 0.3 1018746
05:00+6сз677986 0.1 1019808
08:00+7сз567779 0.1 1020556
11:00+8сз557359 0.0 1021520
14:00+9сз446918 0.0 1022433
17:00+8сз33713 0.0 1022363
20:00+8с11735 0.0 1022192
27 июля, вт
вт2723:00+7вюв117920 0.0 102238
02:00+7юв118028 0.0 102119
05:00+9вюв227421 0.0 102073
08:00+12в117014 0.0 1019259
11:00+14ссв126816 0.0 1018613
14:00+13св327058 0.0 1018442
17:00+11св3374100 0.0 1017316
20:00+9св337912 0.0 1018224
28 июля, ср
ср2823:00+7ссв33865 0.0 1017195
02:00+6ссв238749 0.0 1017216
05:00+7ссз238190 0.1 1016553
08:00+8ссз347785 0.1 1015592
11:00+9с337473 0.0 1014649
14:00+9с447870 0.1 1013695
17:00+7ссз448384 0.1 1012585
20:00+7сз568499 0.1 1010656
29 июля, чт
чт2923:00+6с6788100 0.3 1009614
02:00+5ссз5782100 0.4 1008653
05:00+5ссз6883100 0.3 1006795
08:00+5ссз8979100 0.6 1004885
11:00+6сз8986100 0.1 1003792
14:00+6сз91090100 0.3 1001830
17:00+5сз91193100 0.4 1000903
20:00+5сз7885100 0.8 999917